When you browse on this site, cookies collect data to enhance your experience and personalize the content and advertising you see.
Visit our Privacy Policy to learn more. By continuing to use the site, you agree to this use of cookies and data.
  • în România
  • Lista ţărilor
  • Pe 7 zile
  • Temperatura apei
  • Meteo pe hartă
  • Widget-uri
  • user-avatar
    Intrare

    Meteo pe oră la Annaba

    Astăzi, 22 Ianuarie, Miercuri

    Timp Temperatura Precipitaţii Vânt Presiune Umiditate
    00:00 +13°C° 0 mm 5 m/s 766 mmHg 64%
    01:00 +13°C° 0 mm 4 m/s 766 mmHg 66%
    02:00 +13°C° 0 mm 4 m/s 765 mmHg 66%
    03:00 +13°C° 0 mm 4 m/s 765 mmHg 67%
    04:00 +13°C° 0 mm 4 m/s 765 mmHg 67%
    05:00 +12°C° 0 mm 4 m/s 765 mmHg 67%
    06:00 +12°C° 0 mm 4 m/s 765 mmHg 67%
    07:00 +12°C° 0 mm 4 m/s 765 mmHg 67%
    08:00 +13°C° 0 mm 4 m/s 765 mmHg 65%
    09:00 +14°C° 0 mm 5 m/s 765 mmHg 62%
    10:00 +16°C° 0 mm 5 m/s 765 mmHg 60%
    11:00 +17°C° 0 mm 5 m/s 765 mmHg 57%
    12:00 +19°C° 0 mm 6 m/s 764 mmHg 54%
    13:00 +20°C° 0 mm 6 m/s 764 mmHg 50%
    14:00 +20°C° 0 mm 6 m/s 764 mmHg 51%
    15:00 +20°C° 0 mm 6 m/s 763 mmHg 52%
    16:00 +20°C° 0 mm 6 m/s 763 mmHg 52%
    17:00 +19°C° 0 mm 5 m/s 763 mmHg 55%
    18:00 +17°C° 0 mm 5 m/s 763 mmHg 57%
    19:00 +15°C° 0 mm 5 m/s 763 mmHg 59%
    20:00 +15°C° 0 mm 5 m/s 763 mmHg 60%
    21:00 +14°C° 0 mm 5 m/s 763 mmHg 61%
    22:00 +14°C° 0 mm 5 m/s 764 mmHg 62%
    23:00 +13°C° 0 mm 5 m/s 764 mmHg 63%

    Mâine, 23 Ianuarie, Joi

    Timp Temperatura Precipitaţii Vânt Presiune Umiditate
    00:00 +13°C° 0 mm 4 m/s 764 mmHg 63%
    01:00 +12°C° 0 mm 3 m/s 764 mmHg 64%
    02:00 +12°C° 0 mm 3 m/s 763 mmHg 65%
    03:00 +13°C° 0 mm 2 m/s 763 mmHg 65%
    04:00 +13°C° 0 mm 2 m/s 763 mmHg 66%
    05:00 +12°C° 0 mm 2 m/s 763 mmHg 66%
    06:00 +12°C° 0 mm 2 m/s 763 mmHg 66%
    07:00 +11°C° 0 mm 3 m/s 763 mmHg 66%
    08:00 +13°C° 0 mm 2 m/s 763 mmHg 63%
    09:00 +15°C° 0 mm 2 m/s 763 mmHg 60%
    10:00 +16°C° 0 mm 2 m/s 763 mmHg 57%
    11:00 +18°C° 0 mm 2 m/s 763 mmHg 53%
    12:00 +20°C° 0 mm 1 m/s 763 mmHg 50%
    13:00 +22°C° 0 mm 1 m/s 762 mmHg 47%
    14:00 +21°C° 0 mm 1 m/s 762 mmHg 50%
    15:00 +20°C° 0 mm 2 m/s 762 mmHg 53%
    16:00 +20°C° 0 mm 2 m/s 762 mmHg 57%
    17:00 +18°C° 0 mm 2 m/s 762 mmHg 63%
    18:00 +16°C° 0 mm 2 m/s 762 mmHg 69%
    19:00 +14°C° 0 mm 2 m/s 762 mmHg 75%
    20:00 +14°C° 0 mm 2 m/s 762 mmHg 75%
    21:00 +13°C° 0 mm 2 m/s 763 mmHg 75%
    22:00 +13°C° 0 mm 2 m/s 763 mmHg 75%
    23:00 +13°C° 0 mm 2 m/s 763 mmHg 74%

    Poimâine, 24 Ianuarie, Vineri

    Timp Temperatura Precipitaţii Vânt Presiune Umiditate
    00:00 +12°C° 0 mm 2 m/s 763 mmHg 74%
    01:00 +12°C° 0 mm 2 m/s 763 mmHg 74%
    02:00 +12°C° 0 mm 2 m/s 763 mmHg 73%
    03:00 +12°C° 0 mm 2 m/s 763 mmHg 72%
    04:00 +12°C° 0 mm 2 m/s 763 mmHg 71%
    05:00 +12°C° 0 mm 2 m/s 763 mmHg 69%
    06:00 +12°C° 0 mm 2 m/s 763 mmHg 68%
    07:00 +10°C° 0 mm 2 m/s 764 mmHg 66%
    08:00 +13°C° 0 mm 2 m/s 764 mmHg 63%
    09:00 +15°C° 0 mm 1 m/s 764 mmHg 59%
    10:00 +16°C° 0 mm 1 m/s 765 mmHg 56%
    11:00 +18°C° 0 mm 1 m/s 764 mmHg 52%
    12:00 +20°C° 0 mm 1 m/s 764 mmHg 48%
    13:00 +21°C° 0 mm 1 m/s 764 mmHg 44%
    14:00 +21°C° 0 mm 1 m/s 764 mmHg 45%
    15:00 +21°C° 0 mm 1 m/s 764 mmHg 45%
    16:00 +21°C° 0 mm 1 m/s 763 mmHg 46%
    17:00 +18°C° 0 mm 2 m/s 764 mmHg 51%
    18:00 +16°C° 0 mm 2 m/s 764 mmHg 57%
    19:00 +14°C° 0 mm 2 m/s 764 mmHg 62%
    20:00 +14°C° 0 mm 2 m/s 765 mmHg 63%
    21:00 +13°C° 0 mm 2 m/s 765 mmHg 63%
    22:00 +13°C° 0 mm 2 m/s 765 mmHg 64%
    23:00 +13°C° 0 mm 2 m/s 765 mmHg 62%

    25 Ianuarie, Sâmbătă

    Timp Temperatura Precipitaţii Vânt Presiune Umiditate
    00:00 +13°C° 0 mm 2 m/s 765 mmHg 60%
    01:00 +13°C° 0 mm 2 m/s 765 mmHg 58%
    02:00 +13°C° 0 mm 2 m/s 765 mmHg 55%
    03:00 +13°C° 0 mm 2 m/s 764 mmHg 53%
    04:00 +13°C° 0 mm 2 m/s 764 mmHg 51%
    05:00 +12°C° 0 mm 2 m/s 764 mmHg 50%
    06:00 +12°C° 0 mm 2 m/s 764 mmHg 48%
    07:00 +12°C° 0 mm 2 m/s 764 mmHg 47%
    08:00 +14°C° 0 mm 2 m/s 764 mmHg 47%
    09:00 +15°C° 0 mm 2 m/s 764 mmHg 48%
    10:00 +16°C° 0 mm 2 m/s 765 mmHg 48%
    11:00 +17°C° 0 mm 2 m/s 764 mmHg 45%
    12:00 +19°C° 0 mm 2 m/s 764 mmHg 42%
    13:00 +20°C° 0 mm 2 m/s 763 mmHg 39%
    14:00 +20°C° 0 mm 2 m/s 763 mmHg 42%
    15:00 +20°C° 0 mm 2 m/s 762 mmHg 45%
    16:00 +20°C° 0 mm 2 m/s 762 mmHg 48%
    17:00 +19°C° 0 mm 2 m/s 762 mmHg 48%
    18:00 +17°C° 0 mm 2 m/s 762 mmHg 49%
    19:00 +16°C° 0 mm 2 m/s 762 mmHg 50%
    20:00 +16°C° 0 mm 2 m/s 762 mmHg 50%
    21:00 +16°C° 0 mm 3 m/s 762 mmHg 49%
    22:00 +14°C° 0 mm 3 m/s 763 mmHg 48%
    23:00 +14°C° 0 mm 3 m/s 763 mmHg 50%

    26 Ianuarie, Duminică

    Timp Temperatura Precipitaţii Vânt Presiune Umiditate
    00:00 +14°C° 0 mm 3 m/s 763 mmHg 51%
    01:00 +13°C° 0 mm 3 m/s 763 mmHg 53%
    02:00 +13°C° 0 mm 3 m/s 763 mmHg 54%
    03:00 +13°C° 0 mm 3 m/s 763 mmHg 55%
    04:00 +12°C° 0 mm 3 m/s 763 mmHg 56%
    05:00 +12°C° 0 mm 3 m/s 763 mmHg 59%
    06:00 +12°C° 0 mm 3 m/s 763 mmHg 61%
    07:00 +11°C° 0 mm 3 m/s 763 mmHg 63%
    08:00 +13°C° 0 mm 3 m/s 764 mmHg 61%
    09:00 +14°C° 0 mm 3 m/s 764 mmHg 59%
    10:00 +16°C° 0 mm 2 m/s 764 mmHg 56%
    11:00 +17°C° 0 mm 2 m/s 764 mmHg 54%
    12:00 +18°C° 0 mm 2 m/s 764 mmHg 52%
    13:00 +18°C° 0 mm 2 m/s 764 mmHg 50%
    14:00 +18°C° 0.2 mm 3 m/s 764 mmHg 55%
    15:00 +17°C° 0.2 mm 3 m/s 764 mmHg 60%
    16:00 +15°C° 0.2 mm 4 m/s 764 mmHg 64%
    17:00 +14°C° 0.1 mm 4 m/s 764 mmHg 70%
    18:00 +13°C° 0.1 mm 4 m/s 765 mmHg 75%
    19:00 +12°C° 0.1 mm 3 m/s 765 mmHg 80%
    20:00 +11°C° 0.1 mm 4 m/s 766 mmHg 82%
    21:00 +11°C° 0.1 mm 4 m/s 766 mmHg 84%
    22:00 +11°C° 0.1 mm 4 m/s 766 mmHg 85%
    23:00 +10°C° 0 mm 4 m/s 766 mmHg 85%

    27 Ianuarie, Luni

    Timp Temperatura Precipitaţii Vânt Presiune Umiditate
    00:00 +10°C° 0 mm 4 m/s 766 mmHg 85%
    01:00 +10°C° 0 mm 4 m/s 766 mmHg 85%
    02:00 +10°C° 0.1 mm 4 m/s 766 mmHg 84%
    03:00 +10°C° 0.1 mm 4 m/s 766 mmHg 83%
    04:00 +11°C° 0.1 mm 4 m/s 766 mmHg 81%
    05:00 +11°C° 0.2 mm 4 m/s 766 mmHg 83%
    06:00 +11°C° 0.2 mm 4 m/s 767 mmHg 85%
    07:00 +10°C° 0.2 mm 5 m/s 767 mmHg 87%
    08:00 +12°C° 0.2 mm 5 m/s 767 mmHg 85%
    09:00 +12°C° 0.2 mm 5 m/s 768 mmHg 84%
    10:00 +13°C° 0.2 mm 5 m/s 768 mmHg 83%
    11:00 +13°C° 0.2 mm 5 m/s 768 mmHg 81%
    12:00 +14°C° 0.2 mm 5 m/s 768 mmHg 79%
    13:00 +14°C° 0.2 mm 4 m/s 768 mmHg 77%
    14:00 +14°C° 0.2 mm 4 m/s 768 mmHg 77%
    15:00 +14°C° 0.2 mm 4 m/s 767 mmHg 77%
    16:00 +14°C° 0.2 mm 4 m/s 767 mmHg 78%
    17:00 +13°C° 0.1 mm 4 m/s 767 mmHg 81%
    18:00 +12°C° 0.1 mm 3 m/s 768 mmHg 85%
    19:00 +11°C° 0.1 mm 3 m/s 768 mmHg 88%
    20:00 +12°C° 0.1 mm 2 m/s 768 mmHg 89%
    21:00 +10°C° 0.1 mm 2 m/s 769 mmHg 89%
    22:00 +10°C° 0.1 mm 2 m/s 769 mmHg 89%
    23:00 +10°C° 0 mm 2 m/s 769 mmHg 89%
    Arată mai mult